EZS1517 LSGG-EHAM

Flight info

Callsign EZS1517
Flight time 1h 8m
Altitude 36000
Route DIPIR1A ARBOS DCT PENDU DCT IXILU DCT GIVOR DCT SORAL DCT IBERA DCT BUB Y28 HELEN HELEN2A
Aircraft A320/M-SDE3FGHIRWY/LB1

Departure

Time 2026-05-06 14:01
Airport Geneva International Airport (LSGG)

Arrival

Time 2026-05-06 15:09
Airport Amsterdam Airport Schiphol (EHAM)
Time Latitude Longitude Altitude Speed Heading
2026-05-06 13:28 46.22921 6.10404 1403 ft 0 kts 150°
2026-05-06 13:45 46.22922 6.10404 1393 ft 0 kts 150°
2026-05-06 13:49 46.22926 6.10400 1406 ft 4 kts 150°
2026-05-06 13:49 46.22945 6.10384 1400 ft 3 kts 148°
2026-05-06 13:49 46.22960 6.10364 1402 ft 4 kts 78°
2026-05-06 13:50 46.22947 6.10338 1402 ft 3 kts 45°
2026-05-06 13:50 46.22945 6.10335 1402 ft 0 kts 45°
2026-05-06 13:53 46.22962 6.10359 1398 ft 7 kts 45°
2026-05-06 13:53 46.22992 6.10403 1395 ft 5 kts 45°
2026-05-06 13:53 46.22994 6.10407 1395 ft 2 kts 45°
2026-05-06 13:53 46.23033 6.10464 1393 ft 10 kts 45°
2026-05-06 13:54 46.23084 6.10466 1402 ft 7 kts 322°
2026-05-06 13:54 46.23117 6.10419 1397 ft 6 kts 315°
2026-05-06 13:54 46.23152 6.10370 1396 ft 10 kts 315°
2026-05-06 13:54 46.23200 6.10355 1393 ft 7 kts 32°
2026-05-06 13:55 46.23259 6.10437 1396 ft 15 kts 45°
2026-05-06 13:55 46.23332 6.10543 1396 ft 15 kts 44°
2026-05-06 13:55 46.23407 6.10644 1393 ft 17 kts 40°
2026-05-06 13:55 46.23505 6.10786 1389 ft 20 kts 45°
2026-05-06 13:56 46.23598 6.10923 1390 ft 18 kts 45°
2026-05-06 13:56 46.23685 6.11049 1389 ft 17 kts 45°
2026-05-06 13:56 46.23780 6.11187 1379 ft 21 kts 47°
2026-05-06 13:56 46.23882 6.11339 1376 ft 21 kts 45°
2026-05-06 13:57 46.23984 6.11489 1372 ft 21 kts 45°
2026-05-06 13:57 46.24088 6.11642 1368 ft 22 kts 45°
2026-05-06 13:57 46.24194 6.11797 1364 ft 22 kts 45°
2026-05-06 13:57 46.24298 6.11951 1363 ft 20 kts 45°
2026-05-06 13:58 46.24386 6.12080 1368 ft 15 kts 45°
2026-05-06 13:58 46.24450 6.12173 1371 ft 11 kts 45°
2026-05-06 13:58 46.24526 6.12286 1372 ft 22 kts 45°
2026-05-06 13:58 46.24660 6.12482 1366 ft 28 kts 45°
2026-05-06 13:59 46.24799 6.12666 1362 ft 24 kts 25°
2026-05-06 13:59 46.24947 6.12730 1368 ft 20 kts 11°
2026-05-06 13:59 46.24982 6.12624 1372 ft 14 kts 239°
2026-05-06 13:59 46.24960 6.12590 1372 ft 0 kts 225°
2026-05-06 14:00 46.24951 6.12576 1370 ft 9 kts 225°
2026-05-06 14:00 46.24730 6.12252 1372 ft 82 kts 226°
2026-05-06 14:00 46.24187 6.11456 1373 ft 138 kts 226°
2026-05-06 14:00 46.23442 6.10370 1737 ft 153 kts 224°
2026-05-06 14:01 46.22699 6.09269 2465 ft 152 kts 226°
2026-05-06 14:01 46.21953 6.08150 3056 ft 160 kts 226°
2026-05-06 14:01 46.21130 6.06941 3457 ft 179 kts 226°
2026-05-06 14:01 46.20197 6.05579 3785 ft 203 kts 225°
2026-05-06 14:02 46.19139 6.04039 4235 ft 228 kts 225°
2026-05-06 14:02 46.17965 6.02327 4768 ft 251 kts 225°
2026-05-06 14:02 46.16713 6.00499 5516 ft 259 kts 225°
2026-05-06 14:02 46.15447 5.98640 6483 ft 262 kts 226°
2026-05-06 14:03 46.14214 5.96689 7433 ft 265 kts 236°
2026-05-06 14:03 46.13515 5.94220 8346 ft 271 kts 261°
2026-05-06 14:03 46.13619 5.91503 9280 ft 277 kts 284°
2026-05-06 14:03 46.14512 5.89019 10077 ft 285 kts 307°
2026-05-06 14:04 46.16093 5.87142 10350 ft 312 kts 332°
2026-05-06 14:04 46.18254 5.86480 10672 ft 336 kts
2026-05-06 14:04 46.20609 5.86895 11327 ft 344 kts
2026-05-06 14:04 46.23001 5.87385 12076 ft 350 kts
2026-05-06 14:05 46.25432 5.87882 12778 ft 355 kts
2026-05-06 14:05 46.27886 5.88379 13541 ft 359 kts
2026-05-06 14:05 46.30375 5.88881 14191 ft 364 kts
2026-05-06 14:05 46.32893 5.89389 14891 ft 366 kts
2026-05-06 14:06 46.35421 5.89895 15614 ft 368 kts
2026-05-06 14:06 46.37960 5.90400 16341 ft 369 kts
2026-05-06 14:06 46.40515 5.90907 17053 ft 371 kts
2026-05-06 14:06 46.43086 5.91416 17763 ft 374 kts
2026-05-06 14:07 46.45674 5.91932 18398 ft 377 kts
2026-05-06 14:07 46.48283 5.92457 18959 ft 380 kts
2026-05-06 14:07 46.50911 5.92989 19552 ft 382 kts
2026-05-06 14:07 46.53564 5.93527 20095 ft 386 kts
2026-05-06 14:08 46.56232 5.94066 20666 ft 389 kts
2026-05-06 14:08 46.58918 5.94611 21254 ft 391 kts
2026-05-06 14:08 46.61631 5.95159 21790 ft 395 kts
2026-05-06 14:08 46.64363 5.95710 22381 ft 397 kts
2026-05-06 14:09 46.67111 5.96266 22939 ft 400 kts
2026-05-06 14:09 46.69881 5.96827 23464 ft 403 kts
2026-05-06 14:09 46.72668 5.97391 23920 ft 406 kts
2026-05-06 14:09 46.75487 5.97959 24286 ft 411 kts
2026-05-06 14:10 46.78338 5.98535 24683 ft 415 kts
2026-05-06 14:10 46.81205 5.99118 25097 ft 418 kts
2026-05-06 14:10 46.84099 5.99712 25427 ft 422 kts
2026-05-06 14:10 46.87021 6.00313 25863 ft 425 kts
2026-05-06 14:11 46.89962 6.00915 26251 ft 429 kts
2026-05-06 14:11 46.92926 6.01519 26613 ft 432 kts
2026-05-06 14:11 46.95909 6.02127 26990 ft 434 kts
2026-05-06 14:11 46.98921 6.02631 27331 ft 437 kts
2026-05-06 14:12 47.01972 6.02703 27692 ft 439 kts 359°
2026-05-06 14:12 47.05036 6.02749 28039 ft 442 kts
2026-05-06 14:12 47.08121 6.02803 28363 ft 445 kts
2026-05-06 14:12 47.10178 6.02842 28621 ft 446 kts
2026-05-06 14:13 47.13289 6.02901 28960 ft 449 kts
2026-05-06 14:13 47.17441 6.02972 29399 ft 452 kts
2026-05-06 14:13 47.20596 6.03023 29726 ft 454 kts
2026-05-06 14:13 47.23766 6.03075 30006 ft 456 kts
2026-05-06 14:14 47.25908 6.03110 30262 ft 455 kts
2026-05-06 14:14 47.29077 6.03162 30549 ft 456 kts
2026-05-06 14:14 47.32265 6.03216 30815 ft 459 kts
2026-05-06 14:14 47.35471 6.03268 31050 ft 462 kts
2026-05-06 14:15 47.38693 6.03331 31270 ft 465 kts
2026-05-06 14:15 47.41936 6.03402 31538 ft 466 kts
2026-05-06 14:15 47.45170 6.03479 31866 ft 465 kts
2026-05-06 14:15 47.48412 6.03560 32159 ft 466 kts
2026-05-06 14:16 47.51654 6.03637 32464 ft 466 kts
2026-05-06 14:16 47.54860 6.03712 32745 ft 467 kts
2026-05-06 14:16 47.58114 6.03788 33022 ft 468 kts
2026-05-06 14:16 47.61368 6.03863 33307 ft 468 kts
2026-05-06 14:17 47.64623 6.03938 33593 ft 469 kts
2026-05-06 14:17 47.67884 6.04014 33903 ft 469 kts 360°
2026-05-06 14:17 47.71154 6.04083 34168 ft 469 kts 360°
2026-05-06 14:17 47.74409 6.04445 34423 ft 470 kts
2026-05-06 14:18 47.77613 6.05467 34659 ft 471 kts 14°
2026-05-06 14:18 47.80784 6.06660 34895 ft 471 kts 13°
2026-05-06 14:18 47.83966 6.07857 35139 ft 471 kts 13°
2026-05-06 14:18 47.87144 6.09054 35385 ft 471 kts 13°
2026-05-06 14:19 47.90320 6.10250 35612 ft 471 kts 13°
2026-05-06 14:19 47.93500 6.11446 35812 ft 471 kts 13°
2026-05-06 14:19 47.99826 6.13836 35861 ft 467 kts 13°
2026-05-06 14:20 48.06108 6.16219 35851 ft 466 kts 13°
2026-05-06 14:20 48.12378 6.18597 35844 ft 464 kts 13°
2026-05-06 14:21 48.18640 6.20977 35841 ft 464 kts 13°
2026-05-06 14:21 48.24900 6.23368 35839 ft 464 kts 13°
2026-05-06 14:22 48.31148 6.25754 35842 ft 463 kts 13°
2026-05-06 14:22 48.37395 6.28141 35839 ft 463 kts 14°
2026-05-06 14:23 48.43630 6.30540 35835 ft 462 kts 14°
2026-05-06 14:23 48.49866 6.32942 35833 ft 462 kts 14°
2026-05-06 14:24 48.56091 6.35350 35831 ft 462 kts 14°
2026-05-06 14:24 48.62317 6.37769 35830 ft 462 kts 14°
2026-05-06 14:25 48.68624 6.39427 35826 ft 460 kts
2026-05-06 14:25 48.75015 6.40052 35823 ft 460 kts
2026-05-06 14:26 48.81397 6.40705 35823 ft 460 kts
2026-05-06 14:26 48.87785 6.41362 35822 ft 460 kts
2026-05-06 14:27 48.94145 6.42011 35826 ft 460 kts
2026-05-06 14:27 49.00514 6.42660 35823 ft 460 kts
2026-05-06 14:28 49.06911 6.43312 35823 ft 460 kts
2026-05-06 14:28 49.13262 6.42916 35822 ft 456 kts 346°
2026-05-06 14:29 49.19399 6.40464 35815 ft 456 kts 343°
2026-05-06 14:29 49.25524 6.37949 35814 ft 456 kts 343°
2026-05-06 14:30 49.31656 6.35441 35811 ft 456 kts 343°
2026-05-06 14:30 49.37786 6.32926 35814 ft 456 kts 343°
2026-05-06 14:31 49.43924 6.30378 35815 ft 457 kts 343°
2026-05-06 14:31 49.49962 6.27435 35817 ft 454 kts 332°
2026-05-06 14:32 49.55227 6.22243 35831 ft 448 kts 319°
2026-05-06 14:32 49.60135 6.16311 35825 ft 448 kts 319°
2026-05-06 14:33 49.65044 6.10392 35827 ft 448 kts 319°
2026-05-06 14:33 49.69955 6.04463 35833 ft 448 kts 319°
2026-05-06 14:34 49.74857 5.98516 35823 ft 448 kts 319°
2026-05-06 14:34 49.79749 5.92561 35829 ft 447 kts 319°
2026-05-06 14:35 49.84609 5.86640 35850 ft 447 kts 319°
2026-05-06 14:35 49.89487 5.80678 35856 ft 446 kts 319°
2026-05-06 14:36 49.94359 5.74694 35854 ft 446 kts 319°
2026-05-06 14:36 49.99221 5.68710 35850 ft 446 kts 319°
2026-05-06 14:37 50.04084 5.62722 35864 ft 446 kts 319°
2026-05-06 14:37 50.08936 5.56719 35864 ft 445 kts 319°
2026-05-06 14:38 50.13781 5.50722 35870 ft 444 kts 319°
2026-05-06 14:38 50.18617 5.44719 35883 ft 444 kts 319°
2026-05-06 14:39 50.23437 5.38718 35882 ft 443 kts 319°
2026-05-06 14:39 50.28245 5.32703 35881 ft 442 kts 319°
2026-05-06 14:40 50.33045 5.26687 35876 ft 442 kts 319°
2026-05-06 14:40 50.37855 5.20653 35870 ft 443 kts 319°
2026-05-06 14:41 50.42663 5.14605 35870 ft 443 kts 319°
2026-05-06 14:41 50.47473 5.08536 35881 ft 444 kts 319°
2026-05-06 14:42 50.52282 5.02458 35881 ft 444 kts 319°
2026-05-06 14:42 50.57086 4.96363 35882 ft 443 kts 319°
2026-05-06 14:43 50.61848 4.90298 35882 ft 443 kts 319°
2026-05-06 14:43 50.66669 4.84135 35885 ft 443 kts 319°
2026-05-06 14:44 50.71425 4.78047 35880 ft 443 kts 319°
2026-05-06 14:45 50.78610 4.68834 35512 ft 443 kts 319°
2026-05-06 14:45 50.80998 4.65761 35276 ft 441 kts 319°
2026-05-06 14:45 50.83371 4.62699 34968 ft 438 kts 319°
2026-05-06 14:45 50.85724 4.59657 34440 ft 435 kts 319°
2026-05-06 14:46 50.88059 4.56627 33899 ft 433 kts 318°
2026-05-06 14:46 50.90183 4.53295 33311 ft 427 kts 308°
2026-05-06 14:46 50.91909 4.49506 32793 ft 421 kts 300°
2026-05-06 14:46 50.93426 4.45560 32265 ft 417 kts 300°
2026-05-06 14:47 50.94934 4.41652 31745 ft 414 kts 300°
2026-05-06 14:47 50.96437 4.37766 31245 ft 411 kts 300°
2026-05-06 14:47 50.97927 4.33916 30750 ft 408 kts 300°
2026-05-06 14:47 50.99407 4.30083 30245 ft 406 kts 300°
2026-05-06 14:48 51.00876 4.26267 29718 ft 403 kts 300°
2026-05-06 14:48 51.02324 4.22489 29214 ft 399 kts 300°
2026-05-06 14:48 51.03756 4.18744 28758 ft 394 kts 300°
2026-05-06 14:48 51.05168 4.15045 28308 ft 390 kts 299°
2026-05-06 14:49 51.06566 4.11378 27858 ft 386 kts 299°
2026-05-06 14:49 51.07949 4.07746 27418 ft 382 kts 299°
2026-05-06 14:49 51.09479 4.04312 26982 ft 380 kts 309°
2026-05-06 14:49 51.11364 4.01390 26533 ft 378 kts 320°
2026-05-06 14:50 51.13467 3.98888 26105 ft 375 kts 322°
2026-05-06 14:50 51.15556 3.96425 25674 ft 372 kts 322°
2026-05-06 14:50 51.17631 3.93973 25219 ft 370 kts 321°
2026-05-06 14:50 51.19689 3.91536 24765 ft 367 kts 321°
2026-05-06 14:51 51.21810 3.89281 24286 ft 367 kts 330°
2026-05-06 14:51 51.24161 3.87713 23822 ft 367 kts 342°
2026-05-06 14:51 51.26673 3.86933 23316 ft 368 kts 353°
2026-05-06 14:51 51.29225 3.86832 22807 ft 367 kts 358°
2026-05-06 14:52 51.31739 3.86789 22334 ft 364 kts 357°
2026-05-06 14:52 51.34263 3.86732 21852 ft 361 kts 357°
2026-05-06 14:52 51.36769 3.86670 21387 ft 359 kts 357°
2026-05-06 14:52 51.39265 3.86611 20920 ft 357 kts 357°
2026-05-06 14:53 51.41737 3.86554 20455 ft 355 kts 358°
2026-05-06 14:53 51.44202 3.86494 19994 ft 354 kts 356°
2026-05-06 14:53 51.46661 3.86435 19528 ft 352 kts 357°
2026-05-06 14:53 51.49102 3.86374 19071 ft 351 kts 358°
2026-05-06 14:54 51.51540 3.86312 18617 ft 350 kts 357°
2026-05-06 14:54 51.53974 3.86250 18153 ft 349 kts 358°
2026-05-06 14:54 51.56392 3.86191 17653 ft 347 kts 358°
2026-05-06 14:54 51.58799 3.86135 17201 ft 344 kts 358°
2026-05-06 14:55 51.61185 3.86079 16754 ft 342 kts 357°
2026-05-06 14:55 51.63556 3.86022 16314 ft 340 kts 358°
2026-05-06 14:55 51.65914 3.85964 15874 ft 338 kts 357°
2026-05-06 14:55 51.68260 3.85906 15432 ft 336 kts 357°
2026-05-06 14:56 51.69804 3.85959 15136 ft 336 kts
2026-05-06 14:56 51.72079 3.86809 14701 ft 337 kts 19°
2026-05-06 14:56 51.74148 3.88600 14257 ft 339 kts 35°
2026-05-06 14:56 51.75938 3.91076 13793 ft 339 kts 39°
2026-05-06 14:57 51.77693 3.93614 13329 ft 338 kts 40°
2026-05-06 14:57 51.79437 3.96132 12891 ft 335 kts 39°
2026-05-06 14:57 51.81164 3.98624 12485 ft 331 kts 40°
2026-05-06 14:57 51.82880 4.01100 12047 ft 329 kts 39°
2026-05-06 14:58 51.84578 4.03550 11605 ft 326 kts 40°
2026-05-06 14:58 51.86254 4.05971 11330 ft 318 kts 40°
2026-05-06 14:58 51.87868 4.08314 11203 ft 306 kts 40°
2026-05-06 14:58 51.89426 4.10575 10979 ft 298 kts 40°
2026-05-06 14:59 51.90952 4.12791 10494 ft 292 kts 40°
2026-05-06 14:59 51.92463 4.14956 9856 ft 288 kts 39°
2026-05-06 14:59 51.93973 4.17051 9177 ft 284 kts 38°
2026-05-06 14:59 51.95471 4.19101 8562 ft 278 kts 38°
2026-05-06 15:00 51.96940 4.21106 8067 ft 274 kts 38°
2026-05-06 15:00 51.98390 4.23088 7611 ft 271 kts 39°
2026-05-06 15:00 51.99816 4.25048 7165 ft 268 kts 39°
2026-05-06 15:00 52.01234 4.27005 6742 ft 267 kts 40°
2026-05-06 15:01 52.02634 4.28940 6311 ft 267 kts 40°
2026-05-06 15:01 52.04055 4.30905 5938 ft 262 kts 40°
2026-05-06 15:01 52.05421 4.32801 5497 ft 261 kts 40°
2026-05-06 15:01 52.06786 4.34697 4976 ft 255 kts 40°
2026-05-06 15:02 52.08136 4.36573 4580 ft 253 kts 41°
2026-05-06 15:02 52.09471 4.38430 4129 ft 252 kts 41°
2026-05-06 15:02 52.10802 4.40284 3697 ft 250 kts 41°
2026-05-06 15:02 52.12116 4.42116 3263 ft 249 kts 41°
2026-05-06 15:03 52.13419 4.43935 2983 ft 241 kts 40°
2026-05-06 15:03 52.14647 4.45652 2915 ft 226 kts 41°
2026-05-06 15:03 52.15802 4.47271 2843 ft 212 kts 41°
2026-05-06 15:03 52.16891 4.48800 2793 ft 203 kts 40°
2026-05-06 15:04 52.17963 4.50298 2728 ft 202 kts 40°
2026-05-06 15:04 52.19026 4.51785 2646 ft 200 kts 40°
2026-05-06 15:04 52.20082 4.53262 2569 ft 198 kts 41°
2026-05-06 15:04 52.21086 4.54666 2475 ft 181 kts 41°
2026-05-06 15:05 52.21996 4.56010 2441 ft 166 kts 50°
2026-05-06 15:05 52.22622 4.57482 2290 ft 151 kts 55°
2026-05-06 15:05 52.23167 4.58864 2118 ft 139 kts 55°
2026-05-06 15:05 52.23672 4.60159 1959 ft 132 kts 56°
2026-05-06 15:06 52.24163 4.61422 1772 ft 132 kts 56°
2026-05-06 15:06 52.24645 4.62666 1599 ft 128 kts 55°
2026-05-06 15:06 52.25125 4.63906 1424 ft 129 kts 56°
2026-05-06 15:06 52.25600 4.65134 1249 ft 127 kts 55°
2026-05-06 15:07 52.26069 4.66350 1071 ft 128 kts 55°
2026-05-06 15:07 52.26551 4.67597 887 ft 130 kts 55°
2026-05-06 15:07 52.27029 4.68838 742 ft 128 kts 54°
2026-05-06 15:07 52.27502 4.70066 583 ft 130 kts 58°
2026-05-06 15:08 52.27985 4.71316 378 ft 131 kts 56°
2026-05-06 15:08 52.28467 4.72551 206 ft 130 kts 59°
2026-05-06 15:08 52.28948 4.73818 35 ft 130 kts 59°
2026-05-06 15:08 52.29391 4.74980 -1 ft 102 kts 58°
2026-05-06 15:09 52.29679 4.75722 -2 ft 57 kts 58°
2026-05-06 15:09 52.29863 4.76199 -3 ft 43 kts 58°
2026-05-06 15:09 52.29979 4.76477 -2 ft 24 kts 43°
2026-05-06 15:09 52.30117 4.76616 -1 ft 23 kts 28°
2026-05-06 15:10 52.30253 4.76731 -1 ft 17 kts 20°
2026-05-06 15:10 52.30369 4.76733 -1 ft 17 kts 29°
2026-05-06 15:10 52.30438 4.76894 -1 ft 18 kts 58°
2026-05-06 15:10 52.30507 4.77075 -1 ft 19 kts 58°
2026-05-06 15:11 52.30579 4.77261 -1 ft 20 kts 58°
2026-05-06 15:11 52.30653 4.77437 -1 ft 16 kts 36°
2026-05-06 15:11 52.30772 4.77462 -1 ft 18 kts
2026-05-06 15:11 52.30907 4.77475 -1 ft 21 kts
2026-05-06 15:12 52.31056 4.77488 -1 ft 22 kts
2026-05-06 15:12 52.31217 4.77502 -1 ft 20 kts
2026-05-06 15:12 52.31345 4.77411 -1 ft 22 kts 312°
2026-05-06 15:12 52.31447 4.77218 -1 ft 23 kts 311°
2026-05-06 15:13 52.31480 4.76968 -1 ft 23 kts 266°
2026-05-06 15:13 52.31472 4.76715 -1 ft 22 kts 267°
2026-05-06 15:13 52.31464 4.76477 -1 ft 20 kts 267°
2026-05-06 15:13 52.31456 4.76256 -1 ft 19 kts 266°
2026-05-06 15:14 52.31449 4.76050 -1 ft 18 kts 266°
2026-05-06 15:14 52.31441 4.75856 -1 ft 16 kts 266°
2026-05-06 15:14 52.31435 4.75677 -1 ft 15 kts 266°
2026-05-06 15:14 52.31426 4.75509 -1 ft 14 kts 255°
2026-05-06 15:15 52.31346 4.75478 -1 ft 12 kts 177°
2026-05-06 15:15 52.31264 4.75486 -1 ft 11 kts 176°
2026-05-06 15:15 52.31176 4.75494 -1 ft 15 kts 176°
2026-05-06 15:15 52.31101 4.75474 -1 ft 8 kts 195°
2026-05-06 15:16 52.31063 4.75500 -1 ft 0 kts 148°
2026-05-06 15:16 52.31058 4.75505 -1 ft 1 kts 148°
2026-05-06 15:16 52.31049 4.75514 -1 ft 1 kts 148°
2026-05-06 15:16 52.31045 4.75518 -1 ft 0 kts 148°
2026-05-06 15:25 52.31046 4.75518 -1 ft 0 kts 148°
2026-05-06 15:59 52.31046 4.75517 -1 ft 0 kts 149°
2026-05-06 16:03 52.31047 4.75517 -1 ft 0 kts 149°
2026-05-06 16:28 52.31047 4.75516 -1 ft 0 kts 149°
2026-05-06 16:32 52.31048 4.75516 -1 ft 0 kts 149°